Location: Unspecified
(0.0000°N, 0.0000°E)
Time: 05:29:16
(UTC+00:00)

First-Move - Visible Passes

Search period start: 12 July 2020 00:00
Search period end: 22 July 2020 00:00
Orbit: 577 x 668 km, 97.6° (Epoch: 11 July)

Date Brightness Start Highest point End Pass type
(mag) Time Alt. Az. Time Alt. Az. Time Alt. Az.
13 Jul ? 04:30:24 10° ENE 04:32:47 15° ESE 04:35:10 10° SE visible
14 Jul ? 04:47:16 10° NE 04:50:45 27° ESE 04:54:15 10° SSE visible
15 Jul ? 05:04:45 10° NNE 05:08:44 52° ESE 05:12:43 10° S visible
16 Jul ? 05:22:37 10° N 05:26:43 80° W 05:30:48 10° SSW visible
17 Jul ? 05:40:51 10° N 05:44:41 40° WNW 05:48:32 10° SSW visible
18 Jul ? 04:24:56 10° ENE 04:26:44 13° ESE 04:28:31 10° SE visible
19 Jul ? 04:41:27 10° NE 04:44:41 23° ESE 04:47:58 10° SSE visible
20 Jul ? 04:58:47 10° NNE 05:02:39 43° ESE 05:06:33 10° S visible
21 Jul ? 05:16:33 10° NNE 05:20:38 84° ESE 05:24:44 10° S visible
